This is the latest recevied weather packets stored in our database for station/object SR8WXE. If no packets are shown the sender has not sent any weather packets the latest 10 day(s).
| Time | Temp. | Humidity | Pressure | Rain* | Wind** | Luminosity | Snow |
|---|---|---|---|---|---|---|---|
| 1777705276 | 13.89° C | 52% | 1028.9 hPa | 0 mm | - | - | - |
| 1777704976 | 13.89° C | 52% | 1028.9 hPa | 0 mm | - | - | - |
| 1777704675 | 13.33° C | 57% | 1028.9 hPa | 0 mm | - | - | - |
| 1777704375 | 13.33° C | 55% | 1028.9 hPa | 0 mm | - | - | - |
| 1777704075 | 13.33° C | 59% | 1029 hPa | 0 mm | - | - | - |
| 1777703775 | 12.78° C | 58% | 1029 hPa | 0 mm | - | - | - |
| 1777703474 | 12.78° C | 58% | 1029 hPa | 0 mm | - | - | - |
| 1777703174 | 12.78° C | 61% | 1029 hPa | 0 mm | - | - | - |
| 1777702874 | 12.22° C | 63% | 1028.9 hPa | 0 mm | - | - | - |
| 1777702573 | 12.22° C | 64% | 1029 hPa | 0 mm | - | - | - |
| 1777702273 | 11.67° C | 66% | 1028.9 hPa | 0 mm | - | - | - |
| 1777701973 | 11.67° C | 66% | 1028.9 hPa | 0 mm | - | - | - |
| 1777701673 | 11.11° C | 68% | 1028.9 hPa | 0 mm | - | - | - |
| 1777701372 | 11.11° C | 69% | 1028.9 hPa | 0 mm | - | - | - |
| 1777701072 | 10.56° C | 70% | 1028.9 hPa | 0 mm | - | - | - |
| 1777700772 | 10° C | 74% | 1028.9 hPa | 0 mm | - | - | - |
| 1777700471 | 9.44° C | 76% | 1028.9 hPa | 0 mm | - | - | - |
| 1777700171 | 8.89° C | 76% | 1028.8 hPa | 0 mm | - | - | - |
| 1777699871 | 8.89° C | 78% | 1028.7 hPa | 0 mm | - | - | - |
| 1777699571 | 8.33° C | 80% | 1028.7 hPa | 0 mm | - | - | - |
| 1777699270 | 8.33° C | 81% | 1028.7 hPa | 0 mm | - | - | - |
| 1777698970 | 7.78° C | 84% | 1028.6 hPa | 0 mm | - | - | - |
| 1777698670 | 7.78° C | 86% | 1028.6 hPa | 0 mm | - | - | - |
| 1777698370 | 7.22° C | 87% | 1028.5 hPa | 0 mm | - | - | - |
| 1777698069 | 6.67° C | 89% | 1028.5 hPa | 0 mm | - | - | - |
* Rain latest hour (hover to see other rain measurements)
** Current wind speed in m/s (hover to see current wind gust speed)